FLOCK 3K-6 (43896 NORAD) Tracking and Keplerian Element Data

This shows tracking and keplerian element data for the satellite.

Feedback or suggestion? Click here.




ElementValue
Catalog43896
NameFLOCK 3K-6
Epoch Orbit316
Epoch Day16.83704997
Epoch Year2019
RAAN286.1722
Inclination97.2997
Eccentricity0.0022907
Argument of Perigee167.9232
Mean Anonmoly192.2559
Mean Motion15.23529077
Decay Rate6.04E-06
L11 43896U 18111W 19016.83704997 .00000604 00000-0 28055-4 0 9990
L22 43896 97.2997 286.1722 0022907 167.9232 192.2559 15.23529077 3167

Live tracking and technical data element details for FLOCK 3K-6 (NORAD 43896). FLOCK 3K-6 can be tracked NOW for your location showing map with azimuth and elevation plus other details from your city location.

Track the satellite on the map from your city or location and see movement details for azimuth, elevation, latitude, longitude, range, height, and movement on the map or in text.







IsCatalogInMostPopularTable: catalog: 43896, numindb: 16
Update: records affected: 1



GetName: 43896 FLOCK 3K-6

Hit Count: updated at: Thu, 17 Jan 2019 15:44:57 GMT